User: anonymous   Login
Location: Unspecified
(0.0000°N, 0.0000°E)
Time: 15:19:23
(UTC+01:00)
Language:

CZ-4B DEB - Orbit

View from above orbital plane
View from above orbital plane
View from above satellite
View from above satellite

Ground track
Ground track

The orbit data is extracted from the following two-line orbital elements,

1 33411U 08053D   14304.08230132  .00027860  00000-0  15039-2 0  3222
2 33411 097.5079 321.3733 0011338 142.7453 217.4567 15.14643794328835
Epoch (UTC): 31 October 2014 01:58:30
Eccentricity: 0.0011338
inclination: 97.5079°
perigee height: 514 km
apogee height: 530 km
right ascension of ascending node: 321.3733°
argument of perigee: 142.7453°
revolutions per day: 15.14643794
mean anomaly at epoch: 217.4567°
orbit number at epoch: 32883

The dashed part of the orbit path shows where the satellite is in the earth's shadow,  

DLR